THORAD DELTA 1 DEB, 42628

Orbit data source: Space-Track

THORAD DELTA 1 DEB, 42628 is space debris in SSO originally from a launch on Fri, 15 Nov 1974 UTC launched from the Air Force Western Test Range (AFWTR). Debris objects in space refer to the collection of defunct objects orbiting the Earth. Examples of debris include non-operational satellites, rocket bodies, and fragments generated from explosions, collisions, or faulty payload assembly.

Loading next visibility...
Identifier
42628, 1974-089GV
Orbit
SSO
Country
Flag of USUS
Related business
Manufacturer
Unknown
Mission
Spacecraft
Bus & Motor
Unknown
Mass
Unknown
Launch date (UTC)
1974-11-15 (52 years ago)
Launch vehicle
Unknown
Launch site
Air Force Western Test Range (AFWTR)
Object type
Payload
Rocket body
Debris
Shape & HBR
Unknown shape, 0.1 m
Radar Cross Section
Medium (>0.1 m² and <1 m²)

Expand to show TLE details & history
Last TLE update: 1 week ago

TLE from 1 week ago
0 THORAD DELTA 1 DEB
1 42628U 74089GV  26200.86216481 -.00000180  00000-0 -14893-2 0  9994
2 42628 101.1528  74.3119 0259524  37.1475 324.7227 12.06959036516753
Epoch: 2026-07-19T20:41Z
TLE epoch observation values (Epoch: 2026-07-19T20:41:31.039Z)
Latitude
0.00002°
Longitude
-173.72191°
Altitude
1,484.139 km
Speed
7.196 km/s
True Right ascension
04h 57m 14s
True Declination
0° 00' 00"
Sunlit
Object was in daylight at epoch
Visualization orbit readout
Latitude
Unknown
Longitude
Unknown
Altitude
Unknown
Speed
Unknown
Apparent Right ascension
Unknown
Apparent Declination
Unknown
Sunlit
N/A
Visualization observer readout
Local Sidereal Time
08:13:09
Azimuth
Unknown
Elevation
Unknown
Doppler factor
Unknown
Orbital elements
Apogee altitude
1,855.703 km
Perigee altitude
1,439.138 km
Semi-major axis
8,025.558 km
Eccentricity
0.02595
Inclination
101.1528°
RAAN
74.3119°
Arg. of periapsis
37.1475°
True anomaly
322.95876°
Mean anomaly
324.7227°
Eccentric anomaly
323.84544°
Mean motion
3.01877 °/min
Orbital period
119.25 mins
BSTAR
-0.0014893
Loading maneuver chart data...
Computing Atmospheric mass density...

Documentation

Showing up to 5 results
|